Regional Weather Roundup
Issued by NWS

Home | Current Version | Previous Version | Graphics & Text | Print | Product List | Glossary On
Versions: 1 2 3 4 5 6 7 8 9 10 11 12 13 14 15 16 17 18 19 20 21 22 23 24 25 26 27
000
ASUS45 KSLC 251310
RWRUT

UTAH REGIONAL WEATHER ROUNDUP
NATIONAL WEATHER SERVICE SALT LAKE CITY UT
700 AM MDT TUE JUL 25 2017

UTZ001>011-023>025-251400-

NORTHERN UTAH

CITY           SKY/WX    TMP DP  RH WIND       PRES   REMARKS
BRIGHAM CITY   CLOUDY    72  58  60 CALM      30.10R
HILL AFB       CLOUDY    65  58  77 E13       30.12R
LOGAN          LGT RAIN  69  60  73 W6        30.10R
OGDEN          LGT RAIN  69  59  70 SE9       30.09R
SALT LAKE CITY LGT RAIN  71  63  75 SE12      30.10R
TOOELE VALLEY  DRIZZLE   68  61  77 SE12      30.09R
WENDOVER       LGT RAIN  72  59  63 NE5       30.09R
HEBER CITY     RAIN      61  57  88 CALM      30.18R
WEST JORDAN    CLOUDY    66  66 100 SE6       30.13R

$$

UTZ011>015-024>027-251400-

CENTRAL/NORTHEAST UTAH

CITY           SKY/WX    TMP DP  RH WIND       PRES   REMARKS
PROVO AIRPORT  CLOUDY    68  61  77 VRB5      30.13R
MOAB/CANYONLAN LGT RAIN  65  64  97 CALM      30.13R FOG
DELTA          CLOUDY    70  55  60 CALM      30.12R
PRICE          LGT RAIN  62  61  96 CALM      30.21R
ROOSEVELT      DRIZZLE   64  59  82 NW5       30.20F
VERNAL         LGT RAIN  64  61  90 SE3       30.19R

$$

UTZ013>016-019>022-027-251400-

SOUTHERN UTAH

CITY           SKY/WX    TMP DP  RH WIND       PRES   REMARKS
BRYCE CANYON   CLOUDY    57  56  96 NE7       30.30R
CEDAR CITY     CLOUDY    62  61  96 SW3       30.17R
MILFORD        CLOUDY    65  60  84 SE3       30.12S
ST GEORGE      RAIN      70  66  88 NW3       30.05S
HANKSVILLE     CLOUDY    64  63  94 N6        30.15S
BLANDING       CLOUDY    66  57  71 E5        30.29R

$$

REGIONAL REPORTS     COLORADO/ARIZONA

CITY           SKY/WX    TMP DP  RH WIND       PRES   REMARKS
CRAIG, CO      CLOUDY    61  57  87 W5        30.24R
GRAND JUNCTION CLOUDY    65  63  93 E9        30.16S
RIFLE, CO      LGT RAIN  64  61  90 CALM      30.23R
MONTROSE, CO   LGT RAIN  63  61  93 SE3       30.26R
CORTEZ, CO     CLOUDY    64  62  93 CALM      30.23R
COLORADO CITY  RAIN      64  64 100 NE5       30.17S
PAGE, AZ       CLOUDY    72  63  73 W5        30.09R
GRAND CANYON   CLOUDY    61  60  97 S9        30.27R
KINGMAN, AZ    MOCLDY    72  66  81 E9        30.05R
FLAGSTAFF, AZ  CLOUDY    58  58 100 SW5       30.31R

$$

REGIONAL REPORTS    NEVADA/IDAHO/WYOMING

CITY           SKY/WX    TMP DP  RH WIND       PRES   REMARKS
LAS VEGAS, NV  LGT RAIN  75  70  84 NE9       29.99R
ELY, NY        CLOUDY    57  54  89 SE7       30.20F
ELKO, NV       MOCLDY    63  49  60 CALM      30.13R
POCATELLO, ID  CLOUDY    74  46  36 SW8       30.06R
BURLEY, ID     CLOUDY    69  53  56 S8        30.04R
FORT BRIDGER,  CLOUDY    64  49  58 SW12      30.29S
EVANSTON, WY   CLOUDY    57  56  96 SW10      30.27R
ROCK SPRINGS,  LGT RAIN  64  53  67 W13       30.23F
KEMMERER, WY     N/A     63  46  55 W13       30.26S

$$




USA.gov is the U.S. government's official web portal to all federal, state and local government web resources and services.